Location: Amberg
(48.0613°N, 10.6820°E)
Time: 06:40:52
(UTC+00:00)

ATLAS 2AS CENTAUR R/B - Pass Details

Date: 18 November 2025
Orbit: 1047 x 1163 km, 63.7° (Epoch: 06 December)

Event Time Altitude Azimuth Distance (km) Brightness Sun altitude
Rises 19:22:22 0° 318° (NW) 3,841 6.3 -37.5°
Reaches altitude 10° 19:25:03 10° 315° (NW) 2,875 5.5 -37.9°
Enters shadow 19:29:41 43° 292° (WNW) 1,429 3.6 -38.7°
